sat.trackr.live / text

‹ back to catalog

STARLINK-35933

NORAD 66529 · 2025-265P

PAYLOAD ACTIVE UNKNOWN

§ Identity

Operator
Country
US
Launch date
2025-11-19
Launch site
AFETR
Launch vehicle
Mass (kg)
RCS (m²)

Purposes: comms

External: N2YO · Heavens-Above · Gunter

§ Orbital elements

Epoch: 2026-05-25T05:14:08.610144Z

Period
94.27 min
Inclination
43.0027°
Eccentricity
0.0001559
Mean motion
15.27591637 rev/d
Perigee alt
481.9 km
Apogee alt
484.1 km
Semi-major
6,861.2 km
B*
5.5884e-4
RAAN
206.0774°
Arg perigee
267.0874°
Mean anomaly
92.9799°
Rev number
2,881

§ Raw data

STARLINK-359331 66529U 25265P   26145.21815521  .00015153  00000+0  55884-3 0  99982 66529  43.0027 206.0774 0001559 267.0874  92.9799 15.27591637 28816

JSON: /api/v1/satellites/66529 · /tle

For live sub-satellite position, see the globe view (requires WebGL).

§ Visibility from observer

Set your observer location to see the next 7 days of passes ≥ 10°. The values pass through the URL so the page stays shareable.

No JS? Fill the form by hand. The geolocation button needs JavaScript.